Wiscasset, ME

1:41 AM EST on November 25, 2017 (GMT -0500)
Wiscasset

Weather History for KIWI - August, 2013

Change the Weather History Date:

Friday, August 2, 2013

  Actual Average Record
Temperature  
Mean Temperature 68 °F -  
Max Temperature 75 °F 76 °F 93 °F (2006)
Min Temperature 61 °F 55 °F 48 °F (1998)
Cooling Degree Days 2    
Growing Degree Days 18 (Base 50)    
Moisture  
Dew Point 63 °F    
Average Humidity 91    
Maximum Humidity 100    
Minimum Humidity 76    
Precipitation  
Precipitation 1.24 in - - ()
Sea Level Pressure  
Sea Level Pressure 29.83 in    
Wind  
Wind Speed 2 mph (South)    
Max Wind Speed 7 mph    
Max Gust Speed -    
Visibility 5 miles    
Events Fog , Rain , Thunderstorm    
Averages and records for this station are not official NWS values.
T = Trace of Precipitation, MM = Missing Value Source: NWS Daily Summary

Daily Weather History Graph

Daily Weather History Graph

Search for Another Location

Airport or City:

Trip Planner

Search our weather history database for the weather conditions in past years. The results will help you decide how hot, cold, wet, or windy it might be!

Date:

Astronomy

Aug. 02, 2013 Rise Set
Actual Time 5:28 AM EDT 8:01 PM EDT
Civil Twilight 4:55 AM EDT 8:33 PM EDT
Nautical Twilight 4:14 AM EDT 9:14 PM EDT
Astronomical Twilight 3:27 AM EDT 10:00 PM EDT
Moon 1:45 AM EDT (8/2) 4:57 PM EDT (8/2)
Length of Visible Light 15h 38m
Length of Day
14h 32m
Waning Crescent, 16% of the Moon is Illuminated
Aug 2
Waning Crescent
Aug 6
New
Aug 14
First Quarter
Aug 20
Full
Aug 28
Last Quarter

Hourly Weather History & Observations

Time (EDT) Temp. Dew Point Humidity Pressure Visibility Wind Dir Wind Speed Gust Speed Precip Events Conditions
12:53 AM 66.0 °F 64.0 °F 93% 29.89 in 9.0 mi Calm Calm - N/A   Overcast
1:53 AM 66.0 °F 64.0 °F 93% 29.88 in 5.0 mi Calm Calm - 0.02 in Rain Light Rain
2:34 AM 66.2 °F 64.4 °F 94% 29.87 in 4.0 mi Calm Calm - 0.04 in Rain Light Rain
2:53 AM 64.9 °F 63.0 °F 93% 29.86 in 2.0 mi Calm Calm - 0.10 in Rain Rain
3:04 AM 64.4 °F 62.6 °F 94% 29.86 in 3.0 mi Calm Calm - 0.03 in Rain Rain
3:53 AM 64.9 °F 63.0 °F 93% 29.85 in 6.0 mi Calm Calm - 0.10 in Rain Light Rain
4:01 AM 64.4 °F 62.6 °F 94% 29.84 in 5.0 mi Calm Calm - 0.01 in Rain Light Rain
4:23 AM 64.4 °F 62.6 °F 94% 29.84 in 3.0 mi Calm Calm - 0.08 in Rain Heavy Rain
4:49 AM 64.4 °F 62.6 °F 94% 29.84 in 2.5 mi Calm Calm - 0.16 in Rain Heavy Rain
4:53 AM 64.0 °F 63.0 °F 96% 29.85 in 2.5 mi Variable 3.5 mph - 0.17 in Rain Rain
5:01 AM 64.4 °F 62.6 °F 94% 29.84 in 4.0 mi Calm Calm - 0.01 in Rain Light Rain
5:23 AM 64.4 °F 62.6 °F 94% 29.85 in 6.0 mi SSW 4.6 mph - 0.03 in Rain Light Rain
5:50 AM 64.4 °F 62.6 °F 94% 29.85 in 4.0 mi South 3.5 mph - 0.07 in Rain Light Rain
5:53 AM 64.0 °F 63.0 °F 96% 29.85 in 4.0 mi Calm Calm - 0.08 in Rain Light Rain
6:35 AM 64.4 °F 62.6 °F 94% 29.84 in 4.0 mi ESE 3.5 mph - 0.01 in Rain Light Rain
6:53 AM 64.0 °F 62.1 °F 93% 29.85 in 3.0 mi Variable 4.6 mph - 0.02 in Rain Light Rain
7:53 AM 64.0 °F 63.0 °F 96% 29.85 in 6.0 mi South 3.5 mph - 0.03 in   Overcast
8:53 AM 64.0 °F 63.0 °F 96% 29.84 in 6.0 mi Calm Calm - 0.02 in Rain Light Rain
9:36 AM 64.4 °F 64.4 °F 100% 29.84 in 8.0 mi SSW 3.5 mph - 0.01 in   Overcast
9:53 AM 66.0 °F 64.0 °F 93% 29.83 in 7.0 mi Variable 6.9 mph - 0.01 in   Overcast
10:53 AM 66.9 °F 64.0 °F 90% 29.83 in 10.0 mi SSW 5.8 mph - N/A   Overcast
11:53 AM 66.9 °F 64.0 °F 90% 29.83 in 10.0 mi Variable 5.8 mph - N/A   Overcast
12:38 PM 69.8 °F 64.4 °F 83% 29.82 in 10.0 mi SW 5.8 mph - N/A   Overcast
12:53 PM 69.1 °F 64.9 °F 87% 29.81 in 10.0 mi SW 3.5 mph - N/A   Overcast
1:53 PM 70.0 °F 64.9 °F 84% 29.81 in 10.0 mi Calm Calm - N/A   Overcast
2:13 PM 71.6 °F 66.2 °F 83% 29.80 in 10.0 mi SE 5.8 mph - N/A   Overcast
2:20 PM 71.6 °F 64.4 °F 78% 29.80 in 10.0 mi SE 5.8 mph - N/A   Mostly Cloudy
2:53 PM 73.0 °F 66.0 °F 79% 29.81 in 10.0 mi South 5.8 mph - N/A   Partly Cloudy
3:53 PM 73.9 °F 66.0 °F 76% 29.77 in 10.0 mi SE 5.8 mph - N/A   Partly Cloudy
4:38 PM 73.4 °F 66.2 °F 78% 29.78 in 10.0 mi Variable 4.6 mph - N/A Thunderstorm Clear
4:53 PM 73.0 °F 64.9 °F 76% 29.78 in 10.0 mi South 4.6 mph - N/A Thunderstorm Clear
5:08 PM 69.8 °F 66.2 °F 88% 29.80 in 1.2 mi Variable 3.5 mph - 0.07 in Rain , Thunderstorm Rain
5:18 PM 68.0 °F 64.4 °F 88% 29.80 in 4.0 mi Calm Calm - 0.08 in Rain , Thunderstorm Light Rain
5:49 PM 66.2 °F 64.4 °F 94% 29.80 in 2.0 mi Calm Calm - 0.14 in Rain , Thunderstorm Light Rain
5:53 PM 66.9 °F 64.0 °F 90% 29.81 in 5.0 mi South 3.5 mph - 0.15 in Rain , Thunderstorm Light Rain
6:09 PM 66.2 °F 64.4 °F 94% 29.81 in 1.2 mi Calm Calm - 0.06 in Rain , Thunderstorm Light Thunderstorms and Rain
6:17 PM 66.2 °F 62.6 °F 88% 29.80 in 0.8 mi SE 4.6 mph - 0.13 in Rain , Thunderstorm Heavy Thunderstorms and Rain
6:20 PM 66.2 °F 64.4 °F 94% 29.81 in 1.5 mi SSE 3.5 mph - 0.14 in Rain Heavy Rain
6:26 PM 66.2 °F 62.6 °F 88% 29.81 in 3.0 mi Calm Calm - 0.16 in Rain Light Rain
6:53 PM 66.0 °F 63.0 °F 90% 29.80 in 10.0 mi SSW 4.6 mph - 0.16 in   Mostly Cloudy
7:00 PM 66.2 °F 62.6 °F 88% 29.80 in 10.0 mi Calm Calm - N/A Thunderstorm Mostly Cloudy
7:18 PM 64.4 °F 62.6 °F 94% 29.81 in 8.0 mi Calm Calm - N/A Thunderstorm Overcast
7:42 PM 64.4 °F 64.4 °F 100% 29.82 in 1.8 mi Calm Calm - 0.12 in Rain , Thunderstorm Heavy Thunderstorms and Rain
7:53 PM 64.9 °F 62.1 °F 90% 29.83 in 0.8 mi SW 6.9 mph - 0.27 in Rain , Thunderstorm Heavy Thunderstorms and Rain
8:04 PM 66.2 °F 62.6 °F 88% 29.81 in 1.5 mi SE 5.8 mph - 0.11 in Rain , Thunderstorm Thunderstorms and Rain
8:07 PM 66.2 °F 62.6 °F 88% 29.82 in 3.0 mi SSE 3.5 mph - 0.11 in Rain , Thunderstorm Light Thunderstorms and Rain
8:22 PM 64.4 °F 62.6 °F 94% 29.82 in 10.0 mi Calm Calm - 0.11 in   Mostly Cloudy
8:53 PM 64.0 °F 63.0 °F 96% 29.83 in 9.0 mi Calm Calm - 0.11 in   Mostly Cloudy
9:53 PM 66.0 °F 64.0 °F 93% 29.83 in 10.0 mi Calm Calm - N/A   Mostly Cloudy
10:14 PM 64.4 °F 62.6 °F 94% 29.83 in 1.8 mi Calm Calm - N/A   Partly Cloudy
10:25 PM 64.4 °F 62.6 °F 94% 29.83 in 3.0 mi Calm Calm - N/A   Partly Cloudy
10:49 PM 62.6 °F 62.6 °F 100% 29.83 in 1.8 mi Calm Calm - N/A   Clear
10:53 PM 63.0 °F 62.1 °F 97% 29.83 in 1.0 mi Calm Calm - N/A   Mist
11:10 PM 62.6 °F 60.8 °F 94% 29.83 in 0.8 mi Calm Calm - N/A   Mist
11:53 PM 61.0 °F 60.1 °F 97% 29.83 in 0.5 mi Calm Calm - N/A Fog Fog